GW4386 Weather Reports


Display with metric or nautical units.
time (UTC)temp
F
wind
direction
speed
MPH
gust
MPH
rain 1hr
in
rain 24hr
in
rain mn
in
humidity
%
barometer
mb
20260505003108 50 119 0.0 0.0 0.00 0.00 0.00 87 1013.2
20260505002559 50 76 0.0 1.0 0.00 0.00 0.00 87 1013.2
20260505002100 50 45 0.0 1.0 0.00 0.00 0.00 87 1013.2
20260505001604 50 64 0.0 1.0 0.00 0.00 0.00 87 1013.2
20260505001100 51 300 0.0 1.0 0.00 0.00 0.00 87 1013.3
20260505000558 51 311 0.0 1.0 0.00 0.00 0.00 87 1013.3
20260505000107 51 302 0.0 1.0 0.00 0.00 0.00 87 1013.3
20260504235559 51 199 0.0 0.0 0.00 0.00 0.00 87 1013.3
20260504235059 51 199 0.0 0.0 0.00 0.00 0.00 87 1013.3
20260504234559 51 199 0.0 0.0 0.00 0.00 0.00 86 1013.4
20260504234058 51 172 0.0 0.0 0.00 0.00 0.00 86 1013.3
20260504233601 52 24 0.0 0.0 0.00 0.00 0.00 86 1013.3
20260504233100 52 196 0.0 1.0 0.00 0.00 0.00 86 1013.4
20260504232602 52 211 0.0 1.0 0.00 0.00 0.00 85 1013.3
20260504232059 53 200 0.0 1.0 0.00 0.00 0.00 85 1013.3
20260504231558 53 130 0.0 2.0 0.00 0.00 0.00 85 1013.3
20260504231057 53 42 0.0 1.0 0.00 0.00 0.00 85 1013.3
20260504230602 53 310 0.0 1.0 0.00 0.00 0.00 85 1013.3
20260504230100 53 42 0.0 1.0 0.00 0.00 0.00 85 1013.3
20260504230001 53 36 0.0 1.0 0.00 0.00 0.00 84 1013.3
20260504225601 54 55 0.0 1.0 0.00 0.00 0.00 85 1013.3
20260504225158 54 324 0.0 0.0 0.00 0.00 0.00 84 1013.3
20260504224559 54 207 0.0 0.0 0.00 0.00 0.00 84 1013.3
20260504224100 54 189 0.0 0.0 0.00 0.00 0.00 83 1013.4
20260504223602 54 57 0.0 2.0 0.00 0.00 0.00 83 1013.4
20260504223120 55 78 0.0 2.0 0.00 0.00 0.00 82 1013.4
20260504222604 55 70 0.0 1.0 0.00 0.00 0.00 82 1013.4
20260504222058 56 313 0.0 2.0 0.00 0.00 0.00 81 1013.4
20260504221603 56 319 0.0 2.0 0.00 0.00 0.00 81 1013.4
20260504221059 56 315 0.0 1.0 0.00 0.00 0.00 80 1013.4
20260504220559 57 294 0.0 4.0 0.00 0.00 0.00 79 1013.4
20260504220003 57 331 1.0 4.0 0.00 0.00 0.00 80 1013.4
20260504215502 57 329 0.0 3.0 0.00 0.00 0.00 80 1013.4
20260504215000 57 293 0.0 3.0 0.00 0.00 0.00 79 1013.4
20260504214501 58 329 0.0 3.0 0.00 0.00 0.00 79 1013.4
20260504214105 58 299 0.0 1.0 0.00 0.00 0.00 78 1013.4
20260504213510 58 52 0.0 3.0 0.00 0.00 0.00 78 1013.4
20260504213003 59 36 0.0 3.0 0.00 0.00 0.00 76 1013.5
20260504212502 59 347 0.0 3.0 0.00 0.00 0.00 76 1013.5
20260504212001 60 15 0.0 3.0 0.00 0.00 0.00 75 1013.5
20260504211501 60 312 0.0 3.0 0.00 0.00 0.00 75 1013.4
20260504211001 60 306 0.0 3.0 0.00 0.00 0.00 74 1013.4
20260504210501 61 347 0.0 3.0 0.00 0.00 0.00 74 1013.3
20260504205603 61 321 1.0 4.0 0.00 0.00 0.00 74 1013.3
20260504205059 61 324 0.0 3.0 0.00 0.00 0.00 73 1013.3
20260504204503 61 290 0.0 3.0 0.00 0.00 0.00 72 1013.3
20260504204100 62 308 0.0 3.0 0.00 0.00 0.00 72 1013.3
20260504203600 62 317 0.0 3.0 0.00 0.00 0.00 71 1013.4
20260504203110 62 29 0.0 3.0 0.00 0.00 0.00 71 1013.4
20260504202601 62 318 0.0 3.0 0.00 0.00 0.00 71 1013.4
20260504202100 63 349 0.0 3.0 0.00 0.00 0.00 71 1013.4
20260504201613 63 59 0.0 3.0 0.00 0.00 0.00 71 1013.4
20260504201100 62 13 1.0 3.0 0.00 0.00 0.00 71 1013.3
20260504200600 62 344 0.0 3.0 0.00 0.00 0.00 71 1013.3
20260504200100 62 13 1.0 4.0 0.00 0.00 0.00 72 1013.3
20260504200006 62 55 1.0 4.0 0.00 0.00 0.00 72 1013.3
20260504195502 62 298 0.0 4.0 0.00 0.00 0.00 73 1013.3
20260504195001 62 42 0.0 4.0 0.00 0.00 0.00 73 1013.2
20260504194503 62 13 0.0 3.0 0.00 0.00 0.00 73 1013.2
20260504194005 62 313 0.0 2.0 0.00 0.00 0.00 73 1013.2
20260504193502 62 250 0.0 2.0 0.00 0.00 0.00 71 1013.1
20260504193000 63 313 0.0 3.0 0.00 0.00 0.00 70 1013.1
20260504192505 64 13 0.0 3.0 0.00 0.00 0.00 69 1013.1
20260504192002 64 340 0.0 4.0 0.00 0.00 0.00 68 1013.1
20260504191501 64 316 0.0 4.0 0.00 0.00 0.00 67 1013.0
20260504191001 65 299 0.0 4.0 0.00 0.00 0.00 66 1013.0
20260504190601 65 317 0.0 4.0 0.00 0.00 0.00 66 1013.0
20260504190110 65 309 0.0 5.0 0.00 0.00 0.00 65 1012.9
20260504185601 66 313 2.0 6.0 0.00 0.00 0.00 65 1012.9
20260504185105 66 343 1.0 6.0 0.00 0.00 0.00 65 1012.9
20260504184600 66 336 3.0 9.0 0.00 0.00 0.00 65 1012.8
20260504184501 66 306 2.0 9.0 0.00 0.00 0.00 65 1012.8
20260504184100 66 281 2.0 9.0 0.00 0.00 0.00 65 1012.7
20260504183602 65 313 5.0 9.0 0.00 0.00 0.00 68 1012.6
20260504183101 65 299 0.0 2.0 0.00 0.00 0.00 68 1012.6
20260504183004 65 311 0.0 2.0 0.00 0.00 0.00 68 1012.5
20260504182600 65 298 0.0 1.0 0.00 0.00 0.00 67 1012.5
20260504182501 65 301 0.0 1.0 0.00 0.00 0.00 67 1012.4
20260504182101 66 281 0.0 1.0 0.00 0.00 0.00 66 1012.4
20260504181603 67 259 0.0 1.0 0.00 0.00 0.00 64 1012.4
20260504181501 67 259 0.0 1.0 0.00 0.00 0.00 64 1012.4
20260504181103 67 221 0.0 2.0 0.00 0.00 0.00 63 1012.4
20260504180601 68 248 0.0 2.0 0.00 0.00 0.00 62 1012.4
20260504180100 69 219 0.0 2.0 0.00 0.00 0.00 60 1012.3
20260504175600 70 234 0.0 4.0 0.00 0.00 0.00 59 1012.4
20260504175100 70 225 0.0 4.0 0.00 0.00 0.00 58 1012.3
20260504174604 70 310 0.0 6.0 0.00 0.00 0.00 57 1012.3
20260504174501 70 228 0.0 6.0 0.00 0.00 0.00 57 1012.3
20260504174100 70 211 2.0 4.0 0.00 0.00 0.00 57 1012.4
20260504173603 71 304 0.0 4.0 0.00 0.00 0.00 57 1012.3
20260504173100 71 238 1.0 6.0 0.00 0.00 0.00 56 1012.3
20260504172600 71 252 3.0 7.0 0.00 0.00 0.00 55 1012.3
20260504172100 71 221 2.0 7.0 0.00 0.00 0.00 55 1012.2
20260504172003 71 263 3.0 7.0 0.00 0.00 0.00 55 1012.2
20260504171601 71 257 2.0 8.0 0.00 0.00 0.00 54 1012.2
20260504171101 71 194 3.0 8.0 0.00 0.00 0.00 54 1012.2
20260504170601 72 198 3.0 10.0 0.00 0.00 0.00 54 1012.2
20260504151101 73 188 3.0 14.0 0.00 0.00 0.00 48 1012.1
20260504150600 73 221 3.0 14.0 0.00 0.00 0.00 48 1012.2
20260504150503 73 227 3.0 14.0 0.00 0.00 0.00 48 1012.2
20260504141101 72 215 5.0 11.0 0.00 0.00 0.00 50 1012.4
20260504141001 72 257 5.0 11.0 0.00 0.00 0.00 50 1012.4
20260504140600 73 263 6.0 11.0 0.00 0.00 0.00 50 1012.4
20260504140502 73 303 6.0 11.0 0.00 0.00 0.00 50 1012.4
20260504130600 77 265 10.0 16.0 0.00 0.00 0.00 42 1012.4
20260504130501 77 235 8.0 15.0 0.00 0.00 0.00 43 1012.5
20260504120104 76 186 7.0 15.0 0.00 0.00 0.00 44 1012.4
20260504110559 77 227 10.0 20.0 0.00 0.00 0.00 44 1012.5
20260504100601 75 232 10.0 19.0 0.00 0.00 0.00 44 1012.8
20260504082002 72 163 3.0 7.0 0.00 0.00 0.00 47 1012.7
20260504081603 72 285 2.0 7.0 0.00 0.00 0.00 47 1012.6
20260504081101 71 186 1.0 8.0 0.00 0.00 0.00 48 1012.6
20260504080559 71 306 3.0 8.0 0.00 0.00 0.00 48 1012.6
20260504070115 67 240 2.0 11.0 0.00 0.00 0.00 51 1012.7
20260504060103 64 151 2.0 6.0 0.00 0.00 0.00 54 1012.2
20260504050559 58 183 1.0 7.0 0.00 0.00 0.00 64 1012.2
20260504045559 57 204 2.0 5.0 0.00 0.00 0.00 65 1012.0
20260504045100 57 183 1.0 4.0 0.00 0.00 0.00 66 1012.0
20260504044600 56 191 1.0 5.0 0.00 0.00 0.00 67 1012.0
20260504044500 56 209 1.0 5.0 0.00 0.00 0.00 67 1012.0
20260504044059 55 207 1.0 5.0 0.00 0.00 0.00 68 1012.0
20260504043601 55 211 1.0 3.0 0.00 0.00 0.00 70 1012.0
20260504043105 54 181 0.0 2.0 0.00 0.00 0.00 71 1011.9
20260504042559 53 184 0.0 1.0 0.00 0.00 0.00 74 1011.8
20260504042100 52 176 0.0 0.0 0.00 0.00 0.00 77 1011.8
20260504041600 52 171 0.0 0.0 0.00 0.00 0.00 77 1011.9
20260504041100 53 137 0.0 1.0 0.00 0.00 0.00 74 1011.8
20260504040600 53 145 0.0 3.0 0.00 0.00 0.00 69 1011.9
20260504040132 53 163 0.0 3.0 0.00 0.00 0.00 69 1011.8
20260504035558 53 190 0.0 3.0 0.00 0.00 0.00 69 1011.8
20260504035102 53 182 0.0 3.0 0.00 0.00 0.00 68 1011.7
20260504034603 54 192 0.0 3.0 0.00 0.00 0.00 68 1011.7
20260504034059 54 192 1.0 3.0 0.00 0.00 0.00 67 1011.8
20260504033603 54 201 1.0 4.0 0.00 0.00 0.00 66 1011.7
20260504033059 54 191 2.0 4.0 0.00 0.00 0.00 66 1011.8
20260504032559 53 212 2.0 4.0 0.00 0.00 0.00 68 1011.7
20260504032102 53 209 2.0 3.0 0.00 0.00 0.00 67 1011.7
20260504031621 54 196 2.0 4.0 0.00 0.00 0.00 66 1011.7
20260504031100 54 207 1.0 4.0 0.00 0.00 0.00 66 1011.7
20260504030558 55 190 2.0 4.0 0.00 0.00 0.00 65 1011.7
20260504030058 55 225 2.0 4.0 0.00 0.00 0.00 65 1011.8
20260504030002 55 227 2.0 3.0 0.00 0.00 0.00 65 1011.8
20260504025600 54 202 1.0 4.0 0.00 0.00 0.00 66 1011.8
20260504025100 54 197 2.0 4.0 0.00 0.00 0.00 67 1011.7
20260504025002 54 196 2.0 4.0 0.00 0.00 0.00 67 1011.8
20260504024604 53 195 2.0 4.0 0.00 0.00 0.00 68 1011.8
20260504024059 53 207 2.0 4.0 0.00 0.00 0.00 69 1011.8
20260504023559 52 195 1.0 4.0 0.00 0.00 0.00 71 1011.8
20260504023101 51 199 0.0 2.0 0.00 0.00 0.00 73 1011.9
20260504022601 52 151 0.0 3.0 0.00 0.00 0.00 72 1011.8
20260504022100 52 165 0.0 3.0 0.00 0.00 0.00 72 1011.9
20260504021600 53 184 0.0 2.0 0.00 0.00 0.00 71 1011.8
20260504021001 53 183 0.0 2.0 0.00 0.00 0.00 71 1011.9
20260504020601 53 148 0.0 3.0 0.00 0.00 0.00 72 1011.9
20260504020112 52 190 1.0 3.0 0.00 0.00 0.00 74 1011.8
20260504020001 51 186 1.0 3.0 0.00 0.00 0.00 75 1011.8
20260504015601 51 137 0.0 0.0 0.00 0.00 0.00 74 1011.8
20260504015101 51 156 0.0 0.0 0.00 0.00 0.00 73 1011.8
20260504014558 51 103 0.0 0.0 0.00 0.00 0.00 73 1011.8
20260504014058 52 142 0.0 0.0 0.00 0.00 0.00 71 1011.9
20260504013558 53 147 0.0 1.0 0.00 0.00 0.00 68 1011.9
20260504013100 54 147 0.0 1.0 0.00 0.00 0.00 64 1011.9
20260504012601 56 207 0.0 3.0 0.00 0.00 0.00 61 1011.9
20260504012059 56 196 0.0 3.0 0.00 0.00 0.00 61 1011.9
20260504011600 56 202 0.0 3.0 0.00 0.00 0.00 61 1011.9
20260504011059 56 212 0.0 3.0 0.00 0.00 0.00 62 1011.9
20260504010558 55 209 1.0 3.0 0.00 0.00 0.00 63 1011.9
20260504010059 55 212 1.0 4.0 0.00 0.00 0.00 63 1011.9
20260504005559 55 207 2.0 4.0 0.00 0.00 0.00 63 1011.9
20260504005059 54 197 2.0 4.0 0.00 0.00 0.00 65 1011.9
20260504004559 53 208 2.0 3.0 0.00 0.00 0.00 67 1011.9
20260504004059 52 198 1.0 3.0 0.00 0.00 0.00 68 1011.9
20260504003558 52 204 0.0 3.0 0.00 0.00 0.00 69 1011.8